Year,Month,Day,Hour,Minute,Value (Times are PST for temperature in C)
2008,08,03,00,00,12.20
2008,08,03,00,01,12.10
2008,08,03,00,02,12.10
2008,08,03,00,03,12.10
2008,08,03,00,04,12.10
2008,08,03,00,05,12.10
2008,08,03,00,06,12.10
2008,08,03,00,07,12.10
2008,08,03,00,08,12.10
2008,08,03,00,09,12.10
2008,08,03,00,10,12.10
2008,08,03,00,11,12.10
2008,08,03,00,12,12.10
2008,08,03,00,13,12.10
2008,08,03,00,14,12.10
2008,08,03,00,15,12.10
2008,08,03,00,16,12.10
2008,08,03,00,17,12.10
2008,08,03,00,18,12.00
2008,08,03,00,19,12.00
2008,08,03,00,20,12.00
2008,08,03,00,21,12.00
2008,08,03,00,22,12.00
2008,08,03,00,23,11.90
2008,08,03,00,24,11.90
2008,08,03,00,25,11.90
2008,08,03,00,26,11.90
2008,08,03,00,27,11.80
2008,08,03,00,28,11.80
2008,08,03,00,29,11.80
2008,08,03,00,30,11.80
2008,08,03,00,31,11.80
2008,08,03,00,32,11.80
2008,08,03,00,33,11.70
2008,08,03,00,34,11.70
2008,08,03,00,35,11.70
2008,08,03,00,36,11.70
2008,08,03,00,37,11.70
2008,08,03,00,38,11.60
2008,08,03,00,39,11.60
2008,08,03,00,40,11.60
2008,08,03,00,41,11.60
2008,08,03,00,42,11.60
2008,08,03,00,43,11.60
2008,08,03,00,44,11.60
2008,08,03,00,45,11.60
2008,08,03,00,46,11.60
2008,08,03,00,47,11.60
2008,08,03,00,48,11.60
2008,08,03,00,49,11.60
2008,08,03,00,50,11.60
2008,08,03,00,51,11.50
2008,08,03,00,52,11.40
2008,08,03,00,53,11.40
2008,08,03,00,54,11.40
2008,08,03,00,55,11.40
2008,08,03,00,56,11.40
2008,08,03,00,57,11.40
2008,08,03,00,58,11.40
2008,08,03,00,59,11.40
2008,08,03,01,00,11.40
2008,08,03,01,01,11.40
2008,08,03,01,02,11.30
2008,08,03,01,03,11.30
2008,08,03,01,04,11.30
2008,08,03,01,05,11.20
2008,08,03,01,06,11.20
2008,08,03,01,07,11.20
2008,08,03,01,08,11.20
2008,08,03,01,09,11.10
2008,08,03,01,10,11.10
2008,08,03,01,11,11.10
2008,08,03,01,12,11.10
2008,08,03,01,13,11.10
2008,08,03,01,14,11.10
2008,08,03,01,15,11.10
2008,08,03,01,16,11.10
2008,08,03,01,17,11.10
2008,08,03,01,18,11.10
2008,08,03,01,19,11.10
2008,08,03,01,20,11.10
2008,08,03,01,21,11.10
2008,08,03,01,22,11.00
2008,08,03,01,23,10.90
2008,08,03,01,24,10.90
2008,08,03,01,25,11.00
2008,08,03,01,26,11.10
2008,08,03,01,27,11.10
2008,08,03,01,28,11.10
2008,08,03,01,29,11.10
2008,08,03,01,30,11.10
2008,08,03,01,31,11.10
2008,08,03,01,32,11.10
2008,08,03,01,33,11.10
2008,08,03,01,34,11.10
2008,08,03,01,35,11.10
2008,08,03,01,36,11.10
2008,08,03,01,37,11.10
2008,08,03,01,38,11.00
2008,08,03,01,39,10.90
2008,08,03,01,40,10.90
2008,08,03,01,41,10.90
2008,08,03,01,42,10.90
2008,08,03,01,43,10.90
2008,08,03,01,44,10.90
2008,08,03,01,45,10.90
2008,08,03,01,46,10.90
2008,08,03,01,47,10.90
2008,08,03,01,48,10.90
2008,08,03,01,49,10.90
2008,08,03,01,50,10.90
2008,08,03,01,51,10.90
2008,08,03,01,52,10.90
2008,08,03,01,53,10.90
2008,08,03,01,54,10.90
2008,08,03,01,55,10.80
2008,08,03,01,56,10.80
2008,08,03,01,57,10.80
2008,08,03,01,58,10.80
2008,08,03,01,59,10.80
2008,08,03,02,00,10.80
2008,08,03,02,01,10.80
2008,08,03,02,02,10.80
2008,08,03,02,03,10.70
2008,08,03,02,04,10.70
2008,08,03,02,05,10.70
2008,08,03,02,06,10.70
2008,08,03,02,07,10.60
2008,08,03,02,08,10.60
2008,08,03,02,09,10.60
2008,08,03,02,10,10.60
2008,08,03,02,11,10.60
2008,08,03,02,12,10.60
2008,08,03,02,13,10.50
2008,08,03,02,14,10.40
2008,08,03,02,15,10.40
2008,08,03,02,16,10.40
2008,08,03,02,17,10.40
2008,08,03,02,18,10.40
2008,08,03,02,19,10.40
2008,08,03,02,20,10.40
2008,08,03,02,21,10.40
2008,08,03,02,22,10.40
2008,08,03,02,23,10.40
2008,08,03,02,24,10.40
2008,08,03,02,25,10.40
2008,08,03,02,26,10.40
2008,08,03,02,27,10.40
2008,08,03,02,28,10.40
2008,08,03,02,29,10.40
2008,08,03,02,30,10.40
2008,08,03,02,31,10.40
2008,08,03,02,32,10.40
2008,08,03,02,33,10.30
2008,08,03,02,34,10.30
2008,08,03,02,35,10.30
2008,08,03,02,36,10.20
2008,08,03,02,37,10.20
2008,08,03,02,38,10.20
2008,08,03,02,39,10.20
2008,08,03,02,40,10.10
2008,08,03,02,41,10.10
2008,08,03,02,42,10.10
2008,08,03,02,43,10.10
2008,08,03,02,44,10.10
2008,08,03,02,45,10.10
2008,08,03,02,46,10.10
2008,08,03,02,47,10.10
2008,08,03,02,48,10.10
2008,08,03,02,49,10.10
2008,08,03,02,50,10.10
2008,08,03,02,51,10.10
2008,08,03,02,52,10.10
2008,08,03,02,53,10.10
2008,08,03,02,54,10.10
2008,08,03,02,55,10.10
2008,08,03,02,56,10.10
2008,08,03,02,57,10.10
2008,08,03,02,58,10.20
2008,08,03,02,59,10.20
2008,08,03,03,00,10.20
2008,08,03,03,01,10.20
2008,08,03,03,02,10.20
2008,08,03,03,03,10.20
2008,08,03,03,04,10.20
2008,08,03,03,05,10.20
2008,08,03,03,06,10.20
2008,08,03,03,07,10.20
2008,08,03,03,08,10.20
2008,08,03,03,09,10.10
2008,08,03,03,10,10.10
2008,08,03,03,11,10.10
2008,08,03,03,12,10.10
2008,08,03,03,13,10.10
2008,08,03,03,14,10.00
2008,08,03,03,15,9.90
2008,08,03,03,16,9.90
2008,08,03,03,17,9.90
2008,08,03,03,18,9.90
2008,08,03,03,19,9.90
2008,08,03,03,20,9.80
2008,08,03,03,21,9.80
2008,08,03,03,22,9.80
2008,08,03,03,23,9.80
2008,08,03,03,24,9.70
2008,08,03,03,25,9.70
2008,08,03,03,26,9.70
2008,08,03,03,27,9.70
2008,08,03,03,28,9.70
2008,08,03,03,29,9.70
2008,08,03,03,30,9.70
2008,08,03,03,31,9.70
2008,08,03,03,32,9.70
2008,08,03,03,33,9.70
2008,08,03,03,34,9.70
2008,08,03,03,35,9.70
2008,08,03,03,36,9.70
2008,08,03,03,37,9.70
2008,08,03,03,38,9.70
2008,08,03,03,39,9.70
2008,08,03,03,40,9.60
2008,08,03,03,41,9.60
2008,08,03,03,42,9.60
2008,08,03,03,43,9.60
2008,08,03,03,44,9.60
2008,08,03,03,45,9.50
2008,08,03,03,46,9.50
2008,08,03,03,47,9.50
2008,08,03,03,48,9.50
2008,08,03,03,49,9.50
2008,08,03,03,50,9.50
2008,08,03,03,51,9.40
2008,08,03,03,52,9.40
2008,08,03,03,53,9.40
2008,08,03,03,54,9.40
2008,08,03,03,55,9.40
2008,08,03,03,56,9.40
2008,08,03,03,57,9.40
2008,08,03,03,58,9.40
2008,08,03,03,59,9.40
2008,08,03,04,00,9.50
2008,08,03,04,01,9.50
2008,08,03,04,02,9.60
2008,08,03,04,03,9.60
2008,08,03,04,04,9.60
2008,08,03,04,05,9.60
2008,08,03,04,06,9.60
2008,08,03,04,07,9.50
2008,08,03,04,08,9.50
2008,08,03,04,09,9.50
2008,08,03,04,10,9.50
2008,08,03,04,11,9.50
2008,08,03,04,12,9.50
2008,08,03,04,13,9.50
2008,08,03,04,14,9.50
2008,08,03,04,15,9.50
2008,08,03,04,16,9.50
2008,08,03,04,17,9.50
2008,08,03,04,18,9.50
2008,08,03,04,19,9.60
2008,08,03,04,20,9.60
2008,08,03,04,21,9.60
2008,08,03,04,22,9.70
2008,08,03,04,23,9.70
2008,08,03,04,24,9.70
2008,08,03,04,25,9.70
2008,08,03,04,26,9.70
2008,08,03,04,27,9.60
2008,08,03,04,28,9.50
2008,08,03,04,29,9.40
2008,08,03,04,30,9.30
2008,08,03,04,31,9.20
2008,08,03,04,32,9.20
2008,08,03,04,33,9.20
2008,08,03,04,34,9.20
2008,08,03,04,35,9.20
2008,08,03,04,36,9.20
2008,08,03,04,37,9.20
2008,08,03,04,38,9.30
2008,08,03,04,39,9.30
2008,08,03,04,40,9.40
2008,08,03,04,41,9.50
2008,08,03,04,42,9.60
2008,08,03,04,43,9.70
2008,08,03,04,44,9.70
2008,08,03,04,45,9.70
2008,08,03,04,46,9.70
2008,08,03,04,47,9.70
2008,08,03,04,48,9.70
2008,08,03,04,49,9.70
2008,08,03,04,50,9.70
2008,08,03,04,51,9.70
2008,08,03,04,52,9.70
2008,08,03,04,53,9.60
2008,08,03,04,54,9.60
2008,08,03,04,55,9.60
2008,08,03,04,56,9.60
2008,08,03,04,57,9.50
2008,08,03,04,58,9.50
2008,08,03,04,59,9.50
2008,08,03,05,00,9.50
2008,08,03,05,01,9.50
2008,08,03,05,02,9.50
2008,08,03,05,03,9.40
2008,08,03,05,04,9.40
2008,08,03,05,05,9.40
2008,08,03,05,06,9.30
2008,08,03,05,07,9.30
2008,08,03,05,08,9.30
2008,08,03,05,09,9.20
2008,08,03,05,10,9.20
2008,08,03,05,11,9.20
2008,08,03,05,12,9.20
2008,08,03,05,13,9.20
2008,08,03,05,14,9.20
2008,08,03,05,15,9.20
2008,08,03,05,16,9.20
2008,08,03,05,17,9.20
2008,08,03,05,18,9.20
2008,08,03,05,19,9.20
2008,08,03,05,20,9.20
2008,08,03,05,21,9.30
2008,08,03,05,22,9.30
2008,08,03,05,23,9.30
2008,08,03,05,24,9.30
2008,08,03,05,25,9.30
2008,08,03,05,26,9.30
2008,08,03,05,27,9.20
2008,08,03,05,28,9.20
2008,08,03,05,29,9.20
2008,08,03,05,30,9.20
2008,08,03,05,31,9.10
2008,08,03,05,32,9.10
2008,08,03,05,33,9.10
2008,08,03,05,34,9.10
2008,08,03,05,35,9.10
2008,08,03,05,36,9.10
2008,08,03,05,37,9.10
2008,08,03,05,38,9.10
2008,08,03,05,39,9.10
2008,08,03,05,40,9.10
2008,08,03,05,41,9.10
2008,08,03,05,42,9.10
2008,08,03,05,43,9.10
2008,08,03,05,44,9.10
2008,08,03,05,45,9.10
2008,08,03,05,46,9.10
2008,08,03,05,47,9.10
2008,08,03,05,48,9.10
2008,08,03,05,49,9.10
2008,08,03,05,50,9.10
2008,08,03,05,51,9.00
2008,08,03,05,52,9.00
2008,08,03,05,53,9.00
2008,08,03,05,54,8.90
2008,08,03,05,55,8.90
2008,08,03,05,56,8.90
2008,08,03,05,57,8.90
2008,08,03,05,58,8.90
2008,08,03,05,59,8.90
2008,08,03,06,00,8.90
2008,08,03,06,01,9.00
2008,08,03,06,02,9.00
2008,08,03,06,03,9.00
2008,08,03,06,04,9.10
2008,08,03,06,05,9.10
2008,08,03,06,06,9.10
2008,08,03,06,07,9.10
2008,08,03,06,08,9.20
2008,08,03,06,09,9.20
2008,08,03,06,10,9.20
2008,08,03,06,11,9.20
2008,08,03,06,12,9.10
2008,08,03,06,13,9.00
2008,08,03,06,14,9.00
2008,08,03,06,15,9.10
2008,08,03,06,16,9.10
2008,08,03,06,17,9.10
2008,08,03,06,18,9.10
2008,08,03,06,19,9.10
2008,08,03,06,20,9.10
2008,08,03,06,21,9.10
2008,08,03,06,22,9.00
2008,08,03,06,23,9.00
2008,08,03,06,24,9.00
2008,08,03,06,25,9.00
2008,08,03,06,26,9.00
2008,08,03,06,27,9.10
2008,08,03,06,28,9.10
2008,08,03,06,29,9.10
2008,08,03,06,30,9.20
2008,08,03,06,31,9.20
2008,08,03,06,32,9.20
2008,08,03,06,33,9.20
2008,08,03,06,34,9.20
2008,08,03,06,35,9.20
2008,08,03,06,36,9.30
2008,08,03,06,37,9.30
2008,08,03,06,38,9.40
2008,08,03,06,39,9.50
2008,08,03,06,40,9.60
2008,08,03,06,41,9.70
2008,08,03,06,42,9.70
2008,08,03,06,43,9.70
2008,08,03,06,44,9.80
2008,08,03,06,45,9.80
2008,08,03,06,46,9.80
2008,08,03,06,47,9.80
2008,08,03,06,48,9.90
2008,08,03,06,49,9.90
2008,08,03,06,50,10.00
2008,08,03,06,51,10.10
2008,08,03,06,52,10.10
2008,08,03,06,53,10.10
2008,08,03,06,54,10.10
2008,08,03,06,55,10.20
2008,08,03,06,56,10.20
2008,08,03,06,57,10.30
2008,08,03,06,58,10.40
2008,08,03,06,59,10.40
2008,08,03,07,00,10.50
2008,08,03,07,01,10.60
2008,08,03,07,02,10.70
2008,08,03,07,03,10.70
2008,08,03,07,04,10.80
2008,08,03,07,05,10.80
2008,08,03,07,06,10.90
2008,08,03,07,07,10.90
2008,08,03,07,08,10.90
2008,08,03,07,09,10.90
2008,08,03,07,10,10.90
2008,08,03,07,11,10.90
2008,08,03,07,12,11.00
2008,08,03,07,13,11.10
2008,08,03,07,14,11.10
2008,08,03,07,15,11.10
2008,08,03,07,16,11.10
2008,08,03,07,17,11.30
2008,08,03,07,18,11.40
2008,08,03,07,19,11.50
2008,08,03,07,20,11.60
2008,08,03,07,21,11.60
2008,08,03,07,22,11.60
2008,08,03,07,23,11.60
2008,08,03,07,24,11.60
2008,08,03,07,25,11.70
2008,08,03,07,26,11.70
2008,08,03,07,27,11.80
2008,08,03,07,28,11.80
2008,08,03,07,29,11.80
2008,08,03,07,30,11.90
2008,08,03,07,31,12.00
2008,08,03,07,32,12.00
2008,08,03,07,33,12.10
2008,08,03,07,34,12.20
2008,08,03,07,35,12.30
2008,08,03,07,36,12.30
2008,08,03,07,37,12.40
2008,08,03,07,38,12.40
2008,08,03,07,39,12.50
2008,08,03,07,40,12.60
2008,08,03,07,41,12.70
2008,08,03,07,42,12.80
2008,08,03,07,43,12.90
2008,08,03,07,44,13.00
2008,08,03,07,45,13.00
2008,08,03,07,46,13.10
2008,08,03,07,47,13.20
2008,08,03,07,48,13.30
2008,08,03,07,49,13.30
2008,08,03,07,50,13.40
2008,08,03,07,51,13.50
2008,08,03,07,52,13.60
2008,08,03,07,53,13.70
2008,08,03,07,54,13.70
2008,08,03,07,55,13.80
2008,08,03,07,56,13.90
2008,08,03,07,57,14.10
2008,08,03,07,58,14.20
2008,08,03,07,59,14.30
2008,08,03,08,00,14.50
2008,08,03,08,01,14.60
2008,08,03,08,02,14.70
2008,08,03,08,03,14.70
2008,08,03,08,04,14.80
2008,08,03,08,05,14.80
2008,08,03,08,06,14.80
2008,08,03,08,07,14.90
2008,08,03,08,08,15.00
2008,08,03,08,09,15.00
2008,08,03,08,10,15.10
2008,08,03,08,11,15.00
2008,08,03,08,12,15.10
2008,08,03,08,13,15.10
2008,08,03,08,14,15.20
2008,08,03,08,15,15.20
2008,08,03,08,16,15.30
2008,08,03,08,17,15.30
2008,08,03,08,18,15.30
2008,08,03,08,19,15.40
2008,08,03,08,20,15.50
2008,08,03,08,21,15.60
2008,08,03,08,22,15.60
2008,08,03,08,23,15.70
2008,08,03,08,24,15.70
2008,08,03,08,25,15.80
2008,08,03,08,26,15.80
2008,08,03,08,27,15.80
2008,08,03,08,28,15.80
2008,08,03,08,29,15.90
2008,08,03,08,30,15.90
2008,08,03,08,31,16.10
2008,08,03,08,32,16.10
2008,08,03,08,33,16.10
2008,08,03,08,34,16.10
2008,08,03,08,35,16.20
2008,08,03,08,36,16.20
2008,08,03,08,37,16.30
2008,08,03,08,38,16.30
2008,08,03,08,39,16.40
2008,08,03,08,40,16.40
2008,08,03,08,41,16.60
2008,08,03,08,42,16.60
2008,08,03,08,43,16.70
2008,08,03,08,44,16.70
2008,08,03,08,45,16.70
2008,08,03,08,46,16.70
2008,08,03,08,47,16.70
2008,08,03,08,48,16.70
2008,08,03,08,49,16.70
2008,08,03,08,50,16.70
2008,08,03,08,51,16.70
2008,08,03,08,52,16.80
2008,08,03,08,53,16.80
2008,08,03,08,54,16.90
2008,08,03,08,55,16.90
2008,08,03,08,56,16.90
2008,08,03,08,57,17.00
2008,08,03,08,58,17.10
2008,08,03,08,59,17.20
2008,08,03,09,00,17.30
2008,08,03,09,01,17.30
2008,08,03,09,02,17.30
2008,08,03,09,03,17.30
2008,08,03,09,04,17.30
2008,08,03,09,05,17.30
2008,08,03,09,06,17.30
2008,08,03,09,07,17.40
2008,08,03,09,08,17.50
2008,08,03,09,09,17.50
2008,08,03,09,10,17.60
2008,08,03,09,11,17.60
2008,08,03,09,12,17.60
2008,08,03,09,13,17.70
2008,08,03,09,14,17.70
2008,08,03,09,15,17.70
2008,08,03,09,16,17.60
2008,08,03,09,17,17.70
2008,08,03,09,18,17.80
2008,08,03,09,19,17.80
2008,08,03,09,20,17.80
2008,08,03,09,21,17.90
2008,08,03,09,22,17.80
2008,08,03,09,23,17.80
2008,08,03,09,24,17.80
2008,08,03,09,25,17.80
2008,08,03,09,26,17.80
2008,08,03,09,27,17.70
2008,08,03,09,28,17.60
2008,08,03,09,29,17.50
2008,08,03,09,30,17.40
2008,08,03,09,31,17.30
2008,08,03,09,32,17.20
2008,08,03,09,33,17.20
2008,08,03,09,34,17.20
2008,08,03,09,35,17.20
2008,08,03,09,36,17.00
2008,08,03,09,37,17.00
2008,08,03,09,38,17.00
2008,08,03,09,39,17.00
2008,08,03,09,40,17.10
2008,08,03,09,41,17.20
2008,08,03,09,42,17.10
2008,08,03,09,43,17.00
2008,08,03,09,44,17.00
2008,08,03,09,45,16.90
2008,08,03,09,46,16.90
2008,08,03,09,47,16.90
2008,08,03,09,48,17.00
2008,08,03,09,49,17.10
2008,08,03,09,50,17.20
2008,08,03,09,51,17.40
2008,08,03,09,52,17.60
2008,08,03,09,53,17.80
2008,08,03,09,54,17.90
2008,08,03,09,55,18.10
2008,08,03,09,56,18.20
2008,08,03,09,57,18.30
2008,08,03,09,58,18.40
2008,08,03,09,59,18.50
2008,08,03,10,00,18.50
2008,08,03,10,01,18.50
2008,08,03,10,02,18.50
2008,08,03,10,03,18.50
2008,08,03,10,04,18.40
2008,08,03,10,05,18.30
2008,08,03,10,06,18.30
2008,08,03,10,07,18.30
2008,08,03,10,08,18.30
2008,08,03,10,09,18.30
2008,08,03,10,10,18.40
2008,08,03,10,11,18.50
2008,08,03,10,12,18.50
2008,08,03,10,13,18.60
2008,08,03,10,14,18.60
2008,08,03,10,15,18.70
2008,08,03,10,16,18.80
2008,08,03,10,17,18.90
2008,08,03,10,18,19.20
2008,08,03,10,19,19.40
2008,08,03,10,20,19.40
2008,08,03,10,21,19.60
2008,08,03,10,22,19.70
2008,08,03,10,23,19.80
2008,08,03,10,24,19.90
2008,08,03,10,25,19.90
2008,08,03,10,26,19.90
2008,08,03,10,27,19.80
2008,08,03,10,28,19.80
2008,08,03,10,29,19.90
2008,08,03,10,30,19.90
2008,08,03,10,31,19.80
2008,08,03,10,32,19.70
2008,08,03,10,33,19.60
2008,08,03,10,34,19.50
2008,08,03,10,35,19.40
2008,08,03,10,36,19.40
2008,08,03,10,37,19.30
2008,08,03,10,38,19.40
2008,08,03,10,39,19.50
2008,08,03,10,40,19.60
2008,08,03,10,41,19.50
2008,08,03,10,42,19.30
2008,08,03,10,43,19.20
2008,08,03,10,44,19.30
2008,08,03,10,45,19.40
2008,08,03,10,46,19.50
2008,08,03,10,47,19.40
2008,08,03,10,48,19.30
2008,08,03,10,49,19.20
2008,08,03,10,50,19.10
2008,08,03,10,51,19.10
2008,08,03,10,52,19.00
2008,08,03,10,53,18.80
2008,08,03,10,54,18.70
2008,08,03,10,55,18.70
2008,08,03,10,56,18.70
2008,08,03,10,57,18.90
2008,08,03,10,58,19.10
2008,08,03,10,59,19.10
2008,08,03,11,00,19.10
2008,08,03,11,01,19.10
2008,08,03,11,02,19.00
2008,08,03,11,03,18.90
2008,08,03,11,04,18.90
2008,08,03,11,05,19.00
2008,08,03,11,06,19.10
2008,08,03,11,07,19.30
2008,08,03,11,08,19.40
2008,08,03,11,09,19.50
2008,08,03,11,10,19.60
2008,08,03,11,11,19.60
2008,08,03,11,12,19.60
2008,08,03,11,13,19.50
2008,08,03,11,14,19.50
2008,08,03,11,15,19.40
2008,08,03,11,16,19.50
2008,08,03,11,17,19.40
2008,08,03,11,18,19.20
2008,08,03,11,19,19.10
2008,08,03,11,20,19.10
2008,08,03,11,21,19.10
2008,08,03,11,22,19.10
2008,08,03,11,23,19.20
2008,08,03,11,24,19.20
2008,08,03,11,25,19.40
2008,08,03,11,26,19.50
2008,08,03,11,27,19.60
2008,08,03,11,28,19.70
2008,08,03,11,29,19.80
2008,08,03,11,30,19.80
2008,08,03,11,31,19.80
2008,08,03,11,32,19.80
2008,08,03,11,33,19.90
2008,08,03,11,34,19.90
2008,08,03,11,35,19.90
2008,08,03,11,36,19.90
2008,08,03,11,37,19.90
2008,08,03,11,38,19.80
2008,08,03,11,39,19.70
2008,08,03,11,40,19.70
2008,08,03,11,41,19.60
2008,08,03,11,42,19.60
2008,08,03,11,43,19.50
2008,08,03,11,44,19.40
2008,08,03,11,45,19.30
2008,08,03,11,46,19.20
2008,08,03,11,47,19.10
2008,08,03,11,48,18.80
2008,08,03,11,49,18.70
2008,08,03,11,50,18.70
2008,08,03,11,51,18.70
2008,08,03,11,52,18.70
2008,08,03,11,53,18.70
2008,08,03,11,54,18.80
2008,08,03,11,55,18.80
2008,08,03,11,56,18.80
2008,08,03,11,57,18.80
2008,08,03,11,58,18.80
2008,08,03,11,59,18.80
2008,08,03,12,00,18.80
2008,08,03,12,01,18.80
2008,08,03,12,02,18.70
2008,08,03,12,03,18.50
2008,08,03,12,04,18.50
2008,08,03,12,05,18.40
2008,08,03,12,06,18.50
2008,08,03,12,07,18.50
2008,08,03,12,08,18.50
2008,08,03,12,09,18.40
2008,08,03,12,10,18.30
2008,08,03,12,11,18.20
2008,08,03,12,12,18.20
2008,08,03,12,13,18.20
2008,08,03,12,14,18.20
2008,08,03,12,15,18.30
2008,08,03,12,16,18.30
2008,08,03,12,17,18.40
2008,08,03,12,18,18.30
2008,08,03,12,19,18.40
2008,08,03,12,20,18.30
2008,08,03,12,21,18.30
2008,08,03,12,22,18.30
2008,08,03,12,23,18.20
2008,08,03,12,24,18.20
2008,08,03,12,25,18.10
2008,08,03,12,26,18.10
2008,08,03,12,27,18.10
2008,08,03,12,28,18.10
2008,08,03,12,29,17.90
2008,08,03,12,30,17.80
2008,08,03,12,31,17.80
2008,08,03,12,32,17.70
2008,08,03,12,33,17.70
2008,08,03,12,34,17.70
2008,08,03,12,35,17.80
2008,08,03,12,36,17.90
2008,08,03,12,37,18.00
2008,08,03,12,38,18.10
2008,08,03,12,39,18.20
2008,08,03,12,40,18.20
2008,08,03,12,41,18.20
2008,08,03,12,42,18.10
2008,08,03,12,43,18.00
2008,08,03,12,44,17.90
2008,08,03,12,45,17.80
2008,08,03,12,46,17.70
2008,08,03,12,47,17.60
2008,08,03,12,48,17.50
2008,08,03,12,49,17.50
2008,08,03,12,50,17.60
2008,08,03,12,51,17.70
2008,08,03,12,52,17.90
2008,08,03,12,53,17.90
2008,08,03,12,54,17.90
2008,08,03,12,55,17.90
2008,08,03,12,56,17.90
2008,08,03,12,57,17.80
2008,08,03,12,58,17.80
2008,08,03,12,59,17.80
2008,08,03,13,00,17.80
2008,08,03,13,01,17.90
2008,08,03,13,02,17.80
2008,08,03,13,03,17.90
2008,08,03,13,04,17.90
2008,08,03,13,05,17.90
2008,08,03,13,06,17.90
2008,08,03,13,07,17.90
2008,08,03,13,08,17.90
2008,08,03,13,09,17.90
2008,08,03,13,10,18.10
2008,08,03,13,11,18.20
2008,08,03,13,12,18.10
2008,08,03,13,13,18.00
2008,08,03,13,14,17.90
2008,08,03,13,15,17.90
2008,08,03,13,16,18.00
2008,08,03,13,17,18.10
2008,08,03,13,18,18.20
2008,08,03,13,19,18.20
2008,08,03,13,20,18.30
2008,08,03,13,21,18.30
2008,08,03,13,22,18.30
2008,08,03,13,23,18.40
2008,08,03,13,24,18.40
2008,08,03,13,25,18.50
2008,08,03,13,26,18.60
2008,08,03,13,27,18.70
2008,08,03,13,28,18.90
2008,08,03,13,29,19.00
2008,08,03,13,30,19.10
2008,08,03,13,31,19.00
2008,08,03,13,32,18.80
2008,08,03,13,33,18.80
2008,08,03,13,34,18.90
2008,08,03,13,35,18.80
2008,08,03,13,36,18.80
2008,08,03,13,37,18.70
2008,08,03,13,38,18.70
2008,08,03,13,39,18.60
2008,08,03,13,40,18.50
2008,08,03,13,41,18.50
2008,08,03,13,42,18.50
2008,08,03,13,43,18.40
2008,08,03,13,44,18.50
2008,08,03,13,45,18.60
2008,08,03,13,46,18.60
2008,08,03,13,47,18.60
2008,08,03,13,48,18.70
2008,08,03,13,49,18.70
2008,08,03,13,50,18.70
2008,08,03,13,51,18.80
2008,08,03,13,52,18.80
2008,08,03,13,53,18.80
2008,08,03,13,54,18.80
2008,08,03,13,55,18.90
2008,08,03,13,56,18.90
2008,08,03,13,57,18.90
2008,08,03,13,58,18.90
2008,08,03,13,59,18.80
2008,08,03,14,00,18.80
2008,08,03,14,01,18.80
2008,08,03,14,02,18.80
2008,08,03,14,03,18.90
2008,08,03,14,04,19.00
2008,08,03,14,05,19.10
2008,08,03,14,06,18.90
2008,08,03,14,07,18.90
2008,08,03,14,08,18.90
2008,08,03,14,09,18.90
2008,08,03,14,10,18.80
2008,08,03,14,11,18.80
2008,08,03,14,12,18.80
2008,08,03,14,13,18.90
2008,08,03,14,14,18.90
2008,08,03,14,15,18.90
2008,08,03,14,16,18.90
2008,08,03,14,17,18.70
2008,08,03,14,18,18.70
2008,08,03,14,19,18.60
2008,08,03,14,20,18.50
2008,08,03,14,21,18.50
2008,08,03,14,22,18.60
2008,08,03,14,23,18.60
2008,08,03,14,24,18.60
2008,08,03,14,25,18.60
2008,08,03,14,26,18.70
2008,08,03,14,27,18.80
2008,08,03,14,28,18.90
2008,08,03,14,29,19.00
2008,08,03,14,30,19.10
2008,08,03,14,31,19.00
2008,08,03,14,32,18.90
2008,08,03,14,33,18.90
2008,08,03,14,34,18.90
2008,08,03,14,35,19.00
2008,08,03,14,36,19.10
2008,08,03,14,37,19.10
2008,08,03,14,38,19.20
2008,08,03,14,39,19.40
2008,08,03,14,40,19.70
2008,08,03,14,41,19.80
2008,08,03,14,42,20.00
2008,08,03,14,43,20.10
2008,08,03,14,44,20.20
2008,08,03,14,45,20.20
2008,08,03,14,46,20.20
2008,08,03,14,47,20.40
2008,08,03,14,48,20.50
2008,08,03,14,49,20.60
2008,08,03,14,50,20.70
2008,08,03,14,51,20.90
2008,08,03,14,52,21.00
2008,08,03,14,53,21.00
2008,08,03,14,54,21.20
2008,08,03,14,55,21.30
2008,08,03,14,56,21.30
2008,08,03,14,57,21.30
2008,08,03,14,58,21.30
2008,08,03,14,59,21.30
2008,08,03,15,00,21.30
2008,08,03,15,01,21.30
2008,08,03,15,02,21.30
2008,08,03,15,03,21.30
2008,08,03,15,04,21.20
2008,08,03,15,05,21.20
2008,08,03,15,06,21.20
2008,08,03,15,07,21.20
2008,08,03,15,08,21.10
2008,08,03,15,09,21.20
2008,08,03,15,10,21.20
2008,08,03,15,11,21.10
2008,08,03,15,12,21.00
2008,08,03,15,13,20.80
2008,08,03,15,14,20.80
2008,08,03,15,15,20.80
2008,08,03,15,16,20.90
2008,08,03,15,17,21.00
2008,08,03,15,18,21.10
2008,08,03,15,19,21.10
2008,08,03,15,20,21.10
2008,08,03,15,21,21.10
2008,08,03,15,22,21.00
2008,08,03,15,23,20.70
2008,08,03,15,24,20.60
2008,08,03,15,25,20.50
2008,08,03,15,26,20.30
2008,08,03,15,27,20.20
2008,08,03,15,28,20.20
2008,08,03,15,29,20.20
2008,08,03,15,30,20.20
2008,08,03,15,31,20.10
2008,08,03,15,32,20.00
2008,08,03,15,33,19.90
2008,08,03,15,34,19.90
2008,08,03,15,35,20.10
2008,08,03,15,36,20.20
2008,08,03,15,37,20.20
2008,08,03,15,38,20.20
2008,08,03,15,39,20.20
2008,08,03,15,40,20.20
2008,08,03,15,41,20.20
2008,08,03,15,42,20.20
2008,08,03,15,43,20.20
2008,08,03,15,44,20.20
2008,08,03,15,45,20.20
2008,08,03,15,46,20.30
2008,08,03,15,47,20.40
2008,08,03,15,48,20.50
2008,08,03,15,49,20.50
2008,08,03,15,50,20.60
2008,08,03,15,51,20.70
2008,08,03,15,52,20.80
2008,08,03,15,53,21.00
2008,08,03,15,54,21.10
2008,08,03,15,55,21.10
2008,08,03,15,56,21.20
2008,08,03,15,57,21.20
2008,08,03,15,58,21.20
2008,08,03,15,59,21.10
2008,08,03,16,00,21.00
2008,08,03,16,01,20.80
2008,08,03,16,02,20.60
2008,08,03,16,03,20.50
2008,08,03,16,04,20.40
2008,08,03,16,05,20.40
2008,08,03,16,06,20.40
2008,08,03,16,07,20.50
2008,08,03,16,08,20.50
2008,08,03,16,09,20.60
2008,08,03,16,10,20.70
2008,08,03,16,11,20.80
2008,08,03,16,12,20.80
2008,08,03,16,13,20.90
2008,08,03,16,14,20.90
2008,08,03,16,15,21.00
2008,08,03,16,16,21.10
2008,08,03,16,17,21.20
2008,08,03,16,18,21.30
2008,08,03,16,19,21.30
2008,08,03,16,20,21.30
2008,08,03,16,21,21.20
2008,08,03,16,22,21.20
2008,08,03,16,23,21.20
2008,08,03,16,24,21.10
2008,08,03,16,25,21.10
2008,08,03,16,26,21.20
2008,08,03,16,27,21.20
2008,08,03,16,28,21.30
2008,08,03,16,29,21.30
2008,08,03,16,30,21.30
2008,08,03,16,31,21.30
2008,08,03,16,32,21.40
2008,08,03,16,33,21.50
2008,08,03,16,34,21.60
2008,08,03,16,35,21.60
2008,08,03,16,36,21.60
2008,08,03,16,37,21.40
2008,08,03,16,38,21.40
2008,08,03,16,39,21.30
2008,08,03,16,40,21.20
2008,08,03,16,41,21.00
2008,08,03,16,42,20.90
2008,08,03,16,43,20.70
2008,08,03,16,44,20.50
2008,08,03,16,45,20.50
2008,08,03,16,46,20.40
2008,08,03,16,47,20.50
2008,08,03,16,48,20.50
2008,08,03,16,49,20.70
2008,08,03,16,50,20.70
2008,08,03,16,51,20.80
2008,08,03,16,52,20.90
2008,08,03,16,53,20.80
2008,08,03,16,54,20.90
2008,08,03,16,55,20.90
2008,08,03,16,56,20.90
2008,08,03,16,57,20.80
2008,08,03,16,58,20.80
2008,08,03,16,59,20.70
2008,08,03,17,00,20.70
2008,08,03,17,01,20.70
2008,08,03,17,02,20.60
2008,08,03,17,03,20.60
2008,08,03,17,04,20.70
2008,08,03,17,05,20.80
2008,08,03,17,06,20.80
2008,08,03,17,07,20.80
2008,08,03,17,08,20.90
2008,08,03,17,09,20.90
2008,08,03,17,10,21.00
2008,08,03,17,11,21.00
2008,08,03,17,12,21.00
2008,08,03,17,13,21.00
2008,08,03,17,14,21.00
2008,08,03,17,15,21.00
2008,08,03,17,16,21.00
2008,08,03,17,17,21.00
2008,08,03,17,18,21.10
2008,08,03,17,19,21.10
2008,08,03,17,20,21.20
2008,08,03,17,21,21.30
2008,08,03,17,22,21.30
2008,08,03,17,23,21.30
2008,08,03,17,24,21.40
2008,08,03,17,25,21.40
2008,08,03,17,26,21.40
2008,08,03,17,27,21.50
2008,08,03,17,28,21.60